Regional Weather Roundup
Issued by NWS Burlington, VT

Home | Current Version | Previous Version | Text Only | Print | Product List | Glossary On
Versions: 1 2 3 4 5 6 7 8 9 10 11 12 13 14 15 16 17 18 19 20 21 22 23 24 25 26 27 28 29 30 31 32 33 34 35 36 37 38 39 40 41 42 43 44 45 46 47 48 49 50
000
ASUS41 KBTV 220430
RWRBTV
VERMONT REGIONAL WEATHER ROUNDUP
NATIONAL WEATHER SERVICE BURLINGTON VT
1200 AM EDT FRI AUG 22 2014

NOTE: "FAIR" INDICATES FEW OR NO CLOUDS BELOW 12,000 FEET WITH NO
SIGNIFICANT WEATHER AND/OR OBSTRUCTIONS TO VISIBILITY.

* THESE REPORTS ARE NOT UNDER NWS QUALITY CONTROL AND/OR DO NOT
  REPORT WEATHER SUCH AS PRECIPITATION AND FOG.

VTZ001>019-220500-
_____VERMONT_____


CITY           SKY/WX    TMP DP  RH WIND       PRES   REMARKS
BURLINGTON     CLOUDY    64  60  87 S3        30.05S
MONTPELIER     CLOUDY    58  58 100 CALM      30.14S FOG
MORRISVILLE    CLOUDY    60  57  89 CALM      30.11S
ST. JOHNSBURY*   N/A     59  58  96 MISG      30.09F
MIDDLEBURY*    CLOUDY    63  60  90 SE8G17    30.04F
RUTLAND*       CLOUDY    59  55  88 S9G16     30.07F
SPRINGFIELD    CLOUDY    59  57  93 CALM      30.11S
HIGHGATE*      FAIR      61  54  77 E3        30.04S
NEWPORT*       MOCLDY    58  55  89 CALM      30.12R
BENNINGTON     LGT RAIN  64  60  87 E6        30.05S
GALLUP MILLS*    N/A      0 N/A N/A MISG        N/A
UNION VILLAGE*   N/A     59 N/A N/A MISG        N/A
MT. MANSFIELD*   N/A     52 N/A N/A SE17        N/A

_____LAKE CHAMPLAIN_____


CITY           SKY/WX    TMP DP  RH WIND       PRES   REMARKS
BURTON ISLAND*   N/A     66  57  72 E6          N/A
COLCHESTER RF*   N/A     64  63  94 S10         N/A
DIAMOND ISL*     N/A    N/A N/A N/A SE3         N/A

$$

NYZ007-026>031-035-052-083-220500-
_____NORTHERN NEW YORK_____


CITY           SKY/WX    TMP DP  RH WIND       PRES   REMARKS
PLATTSBURGH    CLOUDY    64  62  93 SE8       30.04S
SARANAC LAKE   CLOUDY    61  60  97 NE5       30.02F
MASSENA        MOCLDY    64  64 100 NE5       30.01R
OGDENSBURG*    MOCLDY    64  63  94 CALM      29.98F
PARISHVILLE*     N/A     70 N/A N/A SE5         N/A
WATERTOWN      CLOUDY    67  62  84 CALM      29.96S
FT DRUM        MOCLDY    67  65  93 S5        29.97S
ALBANY         LGT RAIN  68  63  84 S9        30.01F
GLENS FALLS    CLOUDY    64  62  93 NE3       30.03S

$$
NHZ002-005-011-220500-
_____NEW HAMPSHIRE_____


CITY           SKY/WX    TMP DP  RH WIND       PRES   REMARKS
LEBANON        CLOUDY    59  56  89 E3        30.09F
KEENE          CLOUDY    59  50  72 NE6       30.10F
MT WASHINGTON  MOCLDY    46  39  76 SE22        N/A
PLYMOUTH       CLOUDY    58  58  99 CALM      30.12S
WHITEFIELD     CLOUDY    60  57  89 CALM      30.11F

$$

_____REGIONAL QUEBEC LOCATIONS_____


CITY           SKY/WX    TMP DP  RH WIND       PRES   REMARKS
MONTREAL       MOCLDY    66  55  68 E9        30.04S
QUEBEC CITY    MOCLDY    64  57  77 NE12G17   30.12S
SHERBROOKE     CLOUDY    61  59  94 NE3       30.10S

_____REGIONAL ONTARIO LOCATIONS_____


CITY           SKY/WX    TMP DP  RH WIND       PRES   REMARKS
OTTAWA         SHOWER    63  61  94 E9        30.01R FOG

______KEY______
VSB  - VISIBILITY IN MILES
WCI  - WIND CHILL INDEX
HX   - HEAT INDEX
$$
NNNN


USA.gov is the U.S. government's official web portal to all federal, state and local government web resources and services.